METEOR 2-10

Satellite information

Favourite Embed

Satellite Type and Status

PAYLOADIN ORBIT

Key statistics

Satellite METEOR 2-10 at a glance.

Uptime

15226

Days in orbit

Revolutions

≈ 14.3

Per day

Orbit

LEO

Low Earth Orbit

Inclination

81.2

Latest

Satellite identification and parameters

Extended collection of information and parameters for METEOR 2-10.

Object identification

Identified? True

Debris? False

Object name: METEOR 2-10

International designator: 1983-109A

Object number (NORAD): 14452

Object ID (CCSDS): 14452

Country: COMMONWEALTH OF INDEPENDENT STATES (CIS)

Current information (Y/N): Y

RCS size: LARGE

Orbital parameters

Period: 100.9 minutes

Inclination: 81.162 deg

SMA: 7179.373 km

Apoapsis: 866.407 km

Periapsis: 736.068 km

RAAN: 348.37 deg

Eccentricy: 0.0090773

Argument of periapsis: 131.8661 deg

Mean anomaly: 229.0311 deg

Mean motion: 14.27161198 rev/day

Mean motion (dot): 0.00000168 rev/day2

B* drag term: 0.000060468 1/REarth

Two-line elements (TLE)

Creation date: July 4, 2025, 6:39 p.m.

Reference frame: TEME

Reference center: EARTH

Epoch: July 4, 2025, 1:37 p.m. UTC

TLE line 0: 0 METEOR 2-10

TLE line 1: 1 14452U 83109A 25185.56791902 .00000168 00000-0 60468-4 0 9990

TLE line 2: 2 14452 81.1620 348.3700 0090773 131.8661 229.0311 14.27161198167836

Live tracking on map

Real-time ground track for satellite METEOR 2-10.

In-orbit conjunctions

A list of the most updated potential collisions computed for object METEOR 2-10.

Target Orbit TCA Probability of collision Miss distance Type
FENGYUN 1C DEB SSO 2025-06-20 13:29:57 0.0001019355 1000.0 (m) DEBRIS
NOAA 16 DEB SSO 2025-04-30 16:56:27 0.0001304968 326.0 (m) DEBRIS
DELTA 1 DEB SSO 2024-12-07 02:12:16 0.0002346025 245.0 (m) DEBRIS
NOAA 16 DEB SSO 2024-11-30 11:11:51 0.0001368331 336.0 (m) DEBRIS
FENGYUN 1C DEB SSO 2024-11-01 05:32:26 0.0003281131 142.0 (m) DEBRIS

Associated space launch

Second generation soviet meteorological satellite

METEOR 2-10 was lifted into orbit during the mission ‘Vostok 8A92M | Meteor-2 10’, on board a Vostok 8A92M space rocket.

The launch took place on Oct. 28, 1983, 9 a.m. from 16/2.

For more information about the launch, click the button.

Launch to space Vostok 8A92M | Meteor-2 10
Vostok 8A92M | Meteor-2 10

Agency: N/A

Status: Launch Successful

Launch date: Oct. 28, 1983, 9 a.m. UTC

Rocket: Vostok 8A92M

Launch pad: 16/2

Location: Plesetsk Cosmodrome, Russian Federation

...

Latest news about this satellite

There are no fresh news available about this satellite. Check back as we update our databases every day.


Newsletter sign-up

Weekly statistics, charts and insights to help you stay on top of the space industry.